Location: *
(48.7546°S, 169.4960°W)
Time: 04:47:54
(UTC+00:00)

Daily predictions for brighter satellites

Satellite Brightness Start Highest point End
(mag) Time Altitude Azimuth Time Altitude Azimuth Time Altitude Azimuth
Meteor 2-2 Rocket 4.4 04:01:13 10° S 04:07:19 71° ESE 04:13:16 10° NNE
Cosmos 1833 Rocket 3.7 04:03:32 10° NNE 04:08:18 28° ENE 04:13:05 10° SE
H-2A R/B 3.7 04:10:36 10° ESE 04:12:23 12° E 04:14:09 10° ENE
Cosmos 1825 4.1 04:10:09 10° NW 04:13:32 30° WSW 04:16:57 10° S
ARIANE 5 R/B 4.2 04:11:17 10° S 04:15:55 33° WSW 04:20:34 10° NW
Cosmos 1953 Rocket 3.7 04:11:54 10° N 04:16:14 56° E 04:20:36 10° SSE
Cosmos 1484 Rocket 4.3 04:16:31 10° S 04:20:10 37° WSW 04:23:42 10° NW
RESURS DK-1 3.9 04:17:23 10° S 04:20:23 19° SE 04:23:22 10° E
Cosmos 1656 3.8 04:15:21 10° SSW 04:21:10 90° NW 04:26:54 10° NNE
ERBS 3.9 04:19:27 10° SW 04:21:51 19° S 04:24:10 10° SE
USA 306 3.2 04:17:56 10° WSW 04:22:04 49° SSE 04:26:11 10° E
CZ-2C R/B 3.9 04:18:37 10° N 04:24:03 49° W 04:29:30 10° SSW
Cosmos 1633 3.8 04:20:57 10° NNW 04:24:19 41° WSW 04:27:43 10° S
USA 307 3.3 04:21:28 10° WSW 04:25:35 47° SSE 04:29:42 10° E
Landsat 5 4.2 04:29:15 10° NE 04:33:19 35° ESE 04:37:18 10° S
[s.n.52708] 3.0 04:38:05 10° WNW 04:40:59 59° SSW 04:43:02 17° ESE
CZ-4C R/B 4.3 04:38:38 10° ENE 04:40:59 19° ESE 04:43:24 10° SSE
[s.n.52707] 3.0 04:38:12 10° WNW 04:41:05 59° SSW 04:43:09 17° ESE
[s.n.52703] 3.0 04:38:19 10° WNW 04:41:12 59° SSW 04:43:16 17° ESE
[s.n.52705] 3.0 04:38:24 10° WNW 04:41:19 59° SSW 04:43:22 17° ESE
[s.n.52706] 3.0 04:38:31 10° WNW 04:41:26 59° SSW 04:43:28 18° ESE
[s.n.52701] 3.0 04:38:38 10° WNW 04:41:33 59° SSW 04:43:35 18° ESE
[s.n.52704] 3.0 04:38:45 10° WNW 04:41:39 59° SSW 04:43:41 18° ESE
[s.n.52699] 3.0 04:38:51 10° WNW 04:41:46 59° SSW 04:43:47 18° ESE
[s.n.52702] 3.0 04:38:58 10° WNW 04:41:53 59° SSW 04:43:54 18° ESE
USA 215 3.3 04:35:18 10° ENE 04:41:56 86° SSE 04:48:35 10° SW
[s.n.52697] 3.0 04:39:05 10° WNW 04:42:00 58° SSW 04:44:01 18° ESE
[s.n.52700] 3.0 04:39:12 10° WNW 04:42:06 58° SSW 04:44:07 18° ESE
[s.n.52695] 3.0 04:39:19 10° WNW 04:42:13 58° SSW 04:44:14 18° ESE
[s.n.52698] 3.0 04:39:25 10° WNW 04:42:20 58° SSW 04:44:20 18° ESE
[s.n.52693] 3.0 04:39:32 10° WNW 04:42:27 58° SSW 04:44:27 18° ESE
[s.n.52696] 3.0 04:39:40 10° W 04:42:33 58° SSW 04:44:33 18° SE
[s.n.52691] 3.0 04:39:45 10° W 04:42:40 58° SSW 04:44:40 18° SE
[s.n.52689] 3.0 04:39:53 10° W 04:42:47 58° SSW 04:44:47 18° SE
[s.n.52694] 3.0 04:40:00 10° W 04:42:54 58° SSW 04:44:53 18° SE
[s.n.52692] 3.0 04:40:06 10° W 04:43:01 58° SSW 04:45:00 18° SE
[s.n.52687] 3.0 04:40:13 10° W 04:43:08 58° SSW 04:45:06 18° SE
[s.n.52685] 3.0 04:40:20 10° W 04:43:14 58° SSW 04:45:13 18° SE
[s.n.52690] 3.0 04:40:27 10° W 04:43:21 57° SSW 04:45:19 18° SE
[s.n.52688] 3.0 04:40:33 10° W 04:43:28 57° SSW 04:45:26 18° SE
[s.n.52683] 3.0 04:40:40 10° W 04:43:35 57° SSW 04:45:33 18° SE
[s.n.52686] 3.0 04:40:47 10° W 04:43:42 57° SSW 04:45:39 18° SE
Cosmos 1980 Rocket 2.6 04:38:25 10° SSW 04:43:46 41° SE 04:49:04 10° ENE
Cosmos 1812 3.8 04:40:35 10° SSE 04:43:47 23° ESE 04:46:57 10° NE
[s.n.52681] 3.0 04:40:54 10° W 04:43:49 57° SSW 04:45:46 18° SE
[s.n.52679] 3.0 04:41:01 10° W 04:43:56 57° SSW 04:45:53 19° SE
[s.n.52684] 3.0 04:41:08 10° W 04:44:02 57° SSW 04:46:00 19° SE
[s.n.52682] 3.0 04:41:15 10° W 04:44:09 57° SSW 04:46:06 19° SE
[s.n.52677] 3.0 04:41:22 10° W 04:44:16 57° SSW 04:46:13 19° SE
[s.n.52680] 3.0 04:41:29 10° W 04:44:24 57° SSW 04:46:20 19° SE
[s.n.52675] 3.0 04:41:36 10° W 04:44:30 57° SSW 04:46:26 19° SE
Cosmos 1842 Rocket 3.6 04:40:02 10° S 04:44:33 66° ESE 04:48:58 10° NNE
[s.n.52678] 3.0 04:41:43 10° W 04:44:38 57° SSW 04:46:33 19° SE
[s.n.52673] 3.0 04:41:51 10° W 04:44:46 57° SSW 04:46:41 19° SE
[s.n.52676] 3.0 04:41:57 10° W 04:44:52 56° SSW 04:46:47 19° SE
[s.n.52671] 3.0 04:42:04 10° W 04:44:58 56° SSW 04:46:54 19° SE
[s.n.52669] 3.0 04:42:11 10° W 04:45:06 56° SSW 04:47:00 19° SE
[s.n.52674] 3.0 04:42:18 10° W 04:45:13 56° SSW 04:47:07 19° SE
Cosmos 1076 Rocket 4.0 04:41:13 10° NNE 04:45:19 39° E 04:49:26 10° SSE
[s.n.52672] 3.0 04:42:25 10° W 04:45:19 56° SSW 04:47:13 19° SE
[s.n.52667] 3.0 04:42:32 10° W 04:45:27 56° SSW 04:47:21 19° SE
[s.n.52665] 3.1 04:42:39 10° W 04:45:34 56° SSW 04:47:28 19° SE
[s.n.52670] 3.1 04:42:47 10° W 04:45:41 56° SSW 04:47:35 19° SE
[s.n.52668] 3.1 04:42:54 10° W 04:45:48 56° SSW 04:47:41 19° SE
[s.n.52666] 3.1 04:43:01 10° W 04:45:56 56° SSW 04:47:48 19° SE
[s.n.52663] 3.1 04:43:08 10° W 04:46:02 56° SSW 04:47:55 19° SE
[s.n.52662] 3.1 04:43:15 10° W 04:46:09 56° SSW 04:48:02 19° SE
[s.n.52664] 3.1 04:43:22 10° W 04:46:17 56° SSW 04:48:09 19° SE
[s.n.52661] 3.1 04:43:29 10° W 04:46:24 55° SSW 04:48:16 20° SE
[s.n.52660] 3.1 04:43:36 10° W 04:46:31 55° SSW 04:48:23 20° SE
[s.n.52656] 3.1 04:43:43 10° W 04:46:38 55° SSW 04:48:29 20° SE
CZ-4B R/B 4.4 04:42:00 10° S 04:46:44 46° WSW 04:51:20 10° NW
[s.n.52658] 3.1 04:43:51 10° W 04:46:46 55° SSW 04:48:37 20° SE
[s.n.52659] 3.1 04:43:58 10° W 04:46:53 55° SSW 04:48:43 20° SE
[s.n.52657] 3.1 04:44:06 10° W 04:47:00 55° SSW 04:48:51 20° SE
SKYMED 2 4.4 04:43:28 10° N 04:47:48 57° W 04:52:11 10° SSW
H-2A R/B 4.0 04:45:08 10° S 04:48:51 43° WSW 04:52:32 10° NW
Cosmos 2322 Rocket 3.8 04:46:55 10° S 04:50:22 16° SSE 04:51:57 14° SE
Cosmos 2333 Rocket 4.3 04:51:30 10° SSE 04:51:46 10° SSE 04:52:01 10° SSE
Cosmos 2369 3.9 04:46:20 10° SSW 04:51:59 52° SE 04:57:32 10° NE
Cosmos 1110 Rocket 4.4 04:47:09 10° NNW 04:52:28 67° WSW 04:57:50 10° SSE
SJ 16-02 3.0 04:50:22 10° SSE 04:52:55 15° SE 04:52:55 15° SE
Cosmos 1340 Rocket 2.8 04:50:35 10° N 04:54:34 63° E 04:58:40 10° SSE
NOAA 11 4.3 04:49:32 10° SSE 04:55:05 80° WSW 05:00:35 10° NNW
Cosmos 2082 Rocket 3.1 04:51:08 10° NNE 04:55:54 29° ENE 04:59:05 17° ESE
Cosmos 2221 2.8 04:51:32 10° SSW 04:56:01 75° W 05:00:26 10° N
USA 308 3.0 04:52:08 10° WSW 04:56:21 59° SSE 04:59:17 19° E
CBERS 1 LM4 rocket 4.4 04:51:56 10° SSE 04:56:45 64° ENE 05:01:36 10° N
SMAP 4.0 04:53:27 12° SE 04:57:09 28° E 05:01:11 10° NNE
Cosmos 1302 Rocket 4.0 04:57:00 10° NNW 05:02:13 73° ENE 05:07:32 10° SSE
Cosmos 1697 Rocket 2.7 04:57:23 10° SSW 05:03:07 87° WNW 05:08:49 10° NNE
H-2A R/B 3.8 05:04:51 16° SE 05:04:51 16° SE 05:06:41 10° SSE
Cosmos 2360 4.3 05:00:36 10° SSW 05:06:25 85° WNW 05:12:08 10° NNE
GENESIS II 4.0 05:03:19 10° SW 05:07:06 68° SE 05:10:29 12° NE
Cosmos 1000 Rocket 4.5 05:02:06 10° N 05:08:11 65° E 05:14:24 10° SSE
Meteor 1-31 Rocket 3.1 05:06:05 10° S 05:10:06 70° WSW 05:14:03 10° NNW
CZ-2C R/B 3.7 05:06:26 10° S 05:11:08 52° WSW 05:15:52 10° NW
Cosmos 1486 Rocket 4.0 05:08:24 10° SSW 05:13:45 62° ESE 05:19:04 10° NE
Cosmos 2219 Rocket 4.3 05:13:47 10° SSE 05:14:24 10° SSE 05:14:52 10° SSE
Cosmos 1939 Rocket 2.7 05:13:46 10° SSE 05:17:43 83° ENE 05:21:38 10° NNW
Cosmos 1933 3.4 05:15:00 10° S 05:19:07 84° W 05:23:11 10° N
Lacrosse 5 2.8 05:14:51 10° WSW 05:19:33 34° S 05:21:34 25° SE
USA 305 2.8 05:15:32 10° WSW 05:19:47 82° SSE 05:21:57 28° ENE
Cosmos 1782 2.7 05:17:43 10° S 05:21:47 80° E 05:25:45 10° NNE
Cosmos 1992 Rocket 4.2 05:17:16 10° N 05:22:20 50° ENE 05:25:25 23° SE
COSMOS 2406 3.1 05:22:36 10° NNW 05:28:15 70° ENE 05:32:11 21° SE
SL-16 R/B 3.0 05:25:15 10° SSW 05:30:16 30° SE 05:30:52 29° ESE
Cosmos 2173 Rocket 4.2 05:24:17 10° SSW 05:30:44 77° W 05:37:02 10° N
Cosmos 2016 Rocket 3.9 05:26:19 10° S 05:32:35 76° E 05:38:53 10° NNE
BREEZE M DEB (TANK) 3.3 05:30:48 10° NNW 05:32:09 27° N 05:32:09 27° N
Lacrosse 5 rocket 2.6 05:29:37 10° SW 05:33:05 25° S 05:33:30 25° SSE
CZ-4B R/B 2.6 05:33:55 46° SE 05:34:46 61° ENE 05:38:33 10° N
Cosmos 724 4.3 05:28:46 10° NNW 05:34:54 80° NE 05:38:44 25° SE
Cosmos 1607 4.2 05:30:20 10° NW 05:36:36 68° SW 05:41:09 20° SSE
Lacrosse 4 Rocket 3.8 05:34:54 10° W 05:37:55 18° SW 05:40:59 10° S
Cosmos 2233 Rocket 4.1 05:34:10 10° S 05:40:21 54° ESE 05:46:32 10° NNE
Cosmos 1503 Rocket 3.9 05:37:51 10° SSW 05:43:05 65° ESE 05:46:48 19° NE
Cosmos 1802 Rocket 4.2 05:37:28 10° SSW 05:43:58 79° W 05:50:26 10° N
NOAA 12 4.4 05:39:55 10° S 05:45:17 68° WSW 05:50:33 10° NNW
Orbus 7S? 3.7 05:41:26 10° SW 05:44:48 39° S 05:44:48 39° S
Cosmos 1864 Rocket 4.4 05:39:47 10° S 05:46:01 88° ESE 05:52:13 10° N
Meteor 2-3 Rocket 4.2 05:43:06 10° NNW 05:48:42 63° WSW 05:54:24 10° S
TIMED 4.4 05:45:51 10° NNW 05:50:15 84° ENE 05:51:24 50° SSE
SL-08 R/B 4.4 05:44:01 10° S 05:50:22 86° E 05:56:33 10° N
Cosmos 2278 3.6 05:45:19 10° SSW 05:51:04 75° ESE 05:54:45 23° NE
Cosmos 1833 Rocket 3.3 05:46:21 10° NW 05:51:55 55° SW 05:56:14 17° SSE
ATLAS 2AS CENTAUR R/B 4.1 05:45:28 10° SW 05:52:01 41° WNW 05:58:56 10° N
H-2A R/B 1.8 05:48:40 17° SSE 05:52:39 83° ENE 05:57:37 10° NNW
Cosmos 2151 3.7 05:49:48 10° NNW 05:54:04 56° WSW 05:58:16 11° S
ADEOS 3.9 05:49:58 10° S 05:55:15 67° WSW 06:00:28 10° NNW
Cosmos 2360 Rocket 3.6 05:51:27 10° S 05:54:40 22° SSE 05:54:40 22° SSE
ERBS 4.1 05:54:45 10° SW 05:56:13 23° SSW 05:56:13 23° SSW
RESURS DK-1 2.6 05:54:39 10° SSW 05:58:52 71° WNW 06:00:20 38° N
USA 306 3.2 05:57:35 10° WSW 06:01:47 60° NW 06:02:19 54° N
USA 307 3.1 06:01:09 10° WSW 06:05:22 64° NW 06:05:36 63° NNW
CZ-2D R/B 3.4 06:06:28 71° W 06:06:28 71° W 06:10:15 10° NNW
Meteor 2-6 Rocket 4.1 06:02:35 10° SSW 06:08:20 86° W 06:13:50 10° N
GEOS 3 Rocket 4.0 06:10:34 47° NE 06:10:34 47° NE 06:15:02 10° NNW
USA 281 3.1 06:05:45 24° SSE 06:10:08 86° ENE 06:16:48 10° NNW
Cosmos 1151 Rocket 4.0 06:12:28 10° S 06:15:19 39° SSW 06:15:19 39° SSW
ARGOS 3.0 06:27:22 82° SSE 06:27:38 90° E 06:33:04 10° NNW
Cosmos 1980 Rocket 3.5 06:22:33 10° SW 06:27:46 39° WNW 06:32:56 10° N
NOAA 6 4.3 06:27:40 36° S 06:29:41 64° WSW 06:34:46 10° NNW
SJ 16-02 2.9 06:27:44 10° SSW 06:29:55 28° SSW 06:29:55 28° SSW
SMAP 4.3 06:31:55 21° S 06:34:35 39° WSW 06:38:57 10° NW
Cosmos 2322 Rocket 3.1 06:30:03 10° SSW 06:33:47 38° S 06:33:47 38° S
USA 308 4.3 06:31:55 10° WSW 06:35:04 36° WNW 06:35:04 36° WNW
Cosmos 2333 Rocket 4.0 06:33:10 10° SSW 06:35:14 19° S 06:35:14 19° S
H-2A R/B 4.1 06:41:54 22° SSW 06:41:54 22° SSW 06:43:35 10° SSW
Cosmos 2082 Rocket 2.8 06:34:10 10° NW 06:39:41 53° SW 06:40:58 44° SSW
Cosmos 2219 Rocket 4.3 06:55:21 10° SSW 06:56:35 16° S 06:56:35 16° S
Lacrosse 5 3.4 06:58:05 10° SW 07:00:46 31° SW 07:00:46 31° SW
Lacrosse 5 rocket 4.4 07:08:54 10° SW 07:09:02 11° SW 07:09:02 11° SW
SL-16 R/B 3.4 07:09:07 10° SW 07:12:45 38° SW 07:12:45 38° SW
Cosmos 2360 Rocket 4.4 07:35:00 10° SSW 07:36:26 18° SSW 07:36:26 18° SSW
